Weather History for Brookings, SD

Change the Weather History Date:

Sunday, May 26, 2013

  Actual Average Record
Temperature  
Mean Temperature 52 °F -  
Max Temperature 55 °F 66 °F 82 °F (2006)
Min Temperature 50 °F 46 °F 35 °F (2003)
Degree Days  
Heating Degree Days 12    
Growing Degree Days 2 (Base 50)    
Moisture  
Dew Point 50 °F    
Average Humidity 94    
Maximum Humidity 100    
Minimum Humidity 88    
Precipitation  
Precipitation 0.00 in - - ()
Sea Level Pressure  
Sea Level Pressure 30.04 in    
Wind  
Wind Speed 8 mph (East)    
Max Wind Speed 18 mph    
Max Gust Speed 33 mph    
Visibility 6 miles    
Events Thunderstorm    
Averages and records for this station are not official NWS values.
T = Trace of Precipitation, MM = Missing Value Source: NWS Daily Summary

Daily Weather History Graph

Daily Weather History Graph

Search for Another Location

Airport:

Trip Planner

Search our weather history database for the weather conditions in past years. The results will help you decide how hot, cold, wet, or windy it might be!

Date:

Astronomy

May. 26, 2013 Rise Set
Actual Time 5:49 AM CDT 8:59 PM CDT
Civil Twilight 5:14 AM CDT 9:34 PM CDT
Nautical Twilight 4:29 AM CDT 10:19 PM CDT
Astronomical Twilight 3:35 AM CDT 11:14 PM CDT
Moon 10:46 PM CDT (5/26) 7:21 AM CDT (5/26)
Length of Visible Light 16h 19m
Length of Day
15h 09m
Waning Gibbous, 96% of the Moon is Illuminated
May 26
Waning Gibbous
May 31
Last Quarter
Jun 8
New
Jun 16
First Quarter
Jun 23
Full

Hourly Weather History & Observations

Time (CDT) Temp. Dew Point Humidity Pressure Visibility Wind Dir Wind Speed Gust Speed Precip Events Conditions
12:15 AM 50.0 °F 48.2 °F 94% 30.11 in 5.0 mi SE 9.2 mph 18.4 mph N/A   Overcast
12:35 AM 50.0 °F 48.2 °F 94% 30.11 in 5.0 mi SE 9.2 mph 19.6 mph N/A   Overcast
12:55 AM 50.0 °F 48.2 °F 94% 30.07 in 4.0 mi ESE 9.2 mph 18.4 mph N/A   Overcast
1:15 AM 50.0 °F 48.2 °F 94% 30.05 in 3.0 mi East 10.4 mph 20.7 mph N/A   Overcast
1:35 AM 50.0 °F 48.2 °F 94% 30.05 in 3.0 mi ESE 10.4 mph 23.0 mph N/A   Overcast
1:55 AM 50.0 °F 48.2 °F 94% 30.03 in 4.0 mi ESE 9.2 mph 20.7 mph N/A   Overcast
2:15 AM 50.0 °F 48.2 °F 94% 29.97 in 3.0 mi ESE 16.1 mph 29.9 mph N/A   Overcast
2:35 AM 50.0 °F 48.2 °F 94% 30.00 in 3.0 mi ESE 10.4 mph 26.5 mph N/A   Overcast
2:55 AM 50.0 °F 48.2 °F 94% 30.06 in 7.0 mi Calm Calm - N/A   Overcast
3:15 AM 50.0 °F 48.2 °F 94% 30.06 in 10.0 mi NNE 3.5 mph - N/A   Overcast
3:35 AM 50.0 °F 48.2 °F 94% 30.01 in 8.0 mi ESE 3.5 mph 18.4 mph N/A   Overcast
3:55 AM 50.0 °F 48.2 °F 94% 30.06 in 10.0 mi ENE 6.9 mph - N/A   Overcast
4:15 AM 50.0 °F 48.2 °F 94% 30.16 in 9.0 mi NW 6.9 mph - N/A Thunderstorm Overcast
4:35 AM 50.0 °F 48.2 °F 94% 30.13 in 5.0 mi NE 5.8 mph - N/A   Overcast
4:55 AM 50.0 °F 48.2 °F 94% 30.13 in 5.0 mi NNE 5.8 mph - N/A   Overcast
5:15 AM 50.0 °F 48.2 °F 94% 30.10 in 5.0 mi ENE 6.9 mph - N/A   Overcast
5:35 AM 50.0 °F 48.2 °F 94% 30.07 in 9.0 mi East 9.2 mph 21.9 mph N/A   Overcast
5:55 AM 50.0 °F 48.2 °F 94% 30.03 in 7.0 mi East 9.2 mph 26.5 mph N/A   Mostly Cloudy
6:15 AM 50.0 °F 48.2 °F 94% 30.07 in 10.0 mi East 3.5 mph - N/A   Partly Cloudy
6:35 AM 50.0 °F 48.2 °F 94% 30.06 in 10.0 mi East 8.1 mph 16.1 mph N/A   Mostly Cloudy
6:55 AM 50.0 °F 48.2 °F 94% 30.07 in 9.0 mi Calm Calm - N/A   Overcast
7:15 AM 50.0 °F 48.2 °F 94% 30.03 in 10.0 mi SE 8.1 mph - N/A   Overcast
7:35 AM 50.0 °F 48.2 °F 94% 30.02 in 6.0 mi SE 4.6 mph 18.4 mph N/A   Overcast
7:55 AM 50.0 °F 48.2 °F 94% 30.07 in 6.0 mi East 3.5 mph - N/A   Overcast
8:15 AM 50.0 °F 48.2 °F 94% 30.14 in 5.0 mi NNW 6.9 mph - N/A   Overcast
8:35 AM 50.0 °F 48.2 °F 94% 30.12 in 5.0 mi NE 6.9 mph - N/A   Overcast
8:55 AM 50.0 °F 48.2 °F 94% 30.13 in 5.0 mi Calm Calm - N/A   Overcast
9:15 AM 50.0 °F 48.2 °F 94% 30.10 in 3.0 mi NE 6.9 mph - N/A   Overcast
9:35 AM 50.0 °F 48.2 °F 94% 30.07 in 4.0 mi East 8.1 mph - N/A   Overcast
9:55 AM 50.0 °F 48.2 °F 94% 30.06 in 4.0 mi East 8.1 mph - N/A   Overcast
10:15 AM 51.8 °F 48.2 °F 88% 30.03 in 5.0 mi ESE 9.2 mph 21.9 mph N/A   Overcast
10:35 AM 51.8 °F 50.0 °F 94% 29.94 in 8.0 mi ESE 15.0 mph 31.1 mph N/A   Overcast
10:55 AM 53.6 °F 51.8 °F 94% 30.01 in 10.0 mi SE 12.7 mph 24.2 mph N/A   Overcast
11:15 AM 53.6 °F 51.8 °F 94% 30.03 in 10.0 mi ESE 11.5 mph 23.0 mph N/A   Overcast
11:35 AM 53.6 °F 51.8 °F 94% 30.11 in 10.0 mi NNW 4.6 mph - N/A   Overcast
11:55 AM 53.6 °F 51.8 °F 94% 30.14 in 10.0 mi North 5.8 mph 16.1 mph N/A   Overcast
12:15 PM 53.6 °F 51.8 °F 94% 30.12 in 10.0 mi ENE 5.8 mph - N/A   Overcast
12:35 PM 53.6 °F 51.8 °F 94% 30.02 in 10.0 mi ESE 15.0 mph 27.6 mph N/A   Overcast
12:55 PM 53.6 °F 51.8 °F 94% 29.98 in 7.0 mi ESE 13.8 mph 27.6 mph N/A   Overcast
1:15 PM 53.6 °F 51.8 °F 94% 29.95 in 3.0 mi SE 18.4 mph 33.4 mph N/A   Overcast
1:35 PM 53.6 °F 51.8 °F 94% 29.96 in 5.0 mi SE 15.0 mph 28.8 mph N/A   Overcast
1:55 PM 55.4 °F 53.6 °F 94% 29.96 in 8.0 mi SE 15.0 mph 25.3 mph N/A   Overcast
2:15 PM 55.4 °F 53.6 °F 94% 29.97 in 10.0 mi ESE 10.4 mph 25.3 mph N/A   Overcast
2:35 PM 55.4 °F 53.6 °F 94% 29.98 in 10.0 mi East 5.8 mph 16.1 mph N/A   Overcast
2:55 PM 55.4 °F 53.6 °F 94% 30.01 in 10.0 mi ESE 8.1 mph - N/A   Overcast
3:15 PM 55.4 °F 53.6 °F 94% 30.01 in 10.0 mi East 5.8 mph - N/A   Overcast
3:35 PM 55.4 °F 53.6 °F 94% 30.03 in 10.0 mi East 3.5 mph - N/A   Overcast
3:55 PM 55.4 °F 53.6 °F 94% 30.03 in 9.0 mi East 10.4 mph - N/A   Overcast
4:15 PM 55.4 °F 51.8 °F 88% 30.03 in 8.0 mi ENE 9.2 mph - N/A   Overcast
4:35 PM 55.4 °F 51.8 °F 88% 30.03 in 7.0 mi East 6.9 mph - N/A   Overcast
4:55 PM 55.4 °F 51.8 °F 88% 30.02 in 5.0 mi ENE 8.1 mph - N/A   Overcast
5:15 PM 53.6 °F 51.8 °F 94% 30.02 in 3.0 mi East 9.2 mph 18.4 mph N/A   Overcast
5:35 PM 53.6 °F 51.8 °F 94% 30.03 in 4.0 mi East 6.9 mph - N/A   Overcast
5:55 PM 53.6 °F 51.8 °F 94% 30.03 in 5.0 mi ENE 5.8 mph - N/A   Overcast
6:15 PM 53.6 °F 51.8 °F 94% 30.03 in 4.0 mi East 5.8 mph - N/A   Overcast
6:35 PM 53.6 °F 51.8 °F 94% 30.03 in 2.5 mi East 8.1 mph - N/A   Overcast
6:55 PM 53.6 °F 51.8 °F 94% 30.03 in 2.0 mi East 8.1 mph - N/A   Overcast
7:15 PM 53.6 °F 51.8 °F 94% 30.00 in 1.8 mi East 10.4 mph 20.7 mph N/A   Overcast
7:35 PM 53.6 °F 51.8 °F 94% 29.99 in 1.8 mi East 10.4 mph 20.7 mph N/A   Overcast
7:55 PM 53.6 °F 51.8 °F 94% 29.97 in 2.5 mi East 9.2 mph 21.9 mph N/A   Overcast
8:15 PM 53.6 °F 51.8 °F 94% 29.99 in 2.5 mi East 11.5 mph 24.2 mph N/A   Overcast
8:35 PM 53.6 °F 51.8 °F 94% 30.02 in 4.0 mi East 8.1 mph 18.4 mph N/A   Overcast
8:55 PM 53.6 °F 51.8 °F 94% 30.01 in 5.0 mi East 9.2 mph 17.3 mph N/A   Overcast
9:15 PM 53.6 °F 51.8 °F 94% 30.01 in 7.0 mi East 8.1 mph - N/A   Overcast
9:35 PM 53.6 °F 51.8 °F 94% 30.03 in 7.0 mi East 4.6 mph - N/A   Overcast
9:55 PM 53.6 °F 51.8 °F 94% 30.01 in 4.0 mi East 8.1 mph - N/A   Overcast
10:15 PM 51.8 °F 51.8 °F 100% 29.97 in 2.5 mi East 8.1 mph 16.1 mph N/A   Overcast
10:35 PM 51.8 °F 51.8 °F 100% 29.96 in 3.0 mi East 6.9 mph - N/A   Overcast
10:55 PM 51.8 °F 51.8 °F 100% 29.96 in 5.0 mi East 8.1 mph 16.1 mph N/A   Overcast
11:15 PM 53.6 °F 51.8 °F 94% 29.98 in 6.0 mi East 8.1 mph - N/A   Overcast
11:35 PM 53.6 °F 51.8 °F 94% 29.99 in 5.0 mi East 10.4 mph 16.1 mph N/A   Overcast
11:55 PM 53.6 °F 51.8 °F 94% 29.98 in 5.0 mi ESE 5.8 mph - N/A   Overcast